Regional Weather Roundup
Issued by NWS Cleveland, OH

Home | Current Version | Previous Version | Graphics & Text | Print | Product List | Glossary On
Versions: 1 2 3 4 5 6 7 8 9 10 11 12 13 14 15 16 17 18 19 20 21 22 23 24 25 26 27 28 29 30 31 32 33 34 35 36 37 38 39 40 41 42 43 44 45 46 47 48 49 50
000
ASUS41 KCLE 022310
RWRCLE
OHIO REGIONAL WEATHER ROUNDUP
NATIONAL WEATHER SERVICE CLEVELAND, OH
700 PM EDT WED SEP 02 2015

NOTE: "FAIR" INDICATES FEW OR NO CLOUDS BELOW 12,000 FEET WITH NO
SIGNIFICANT WEATHER AND/OR OBSTRUCTIONS TO VISIBILITY.

OHZ001>008-015>018-024>027-034-035-043-044-030000-
   NORTHWEST OHIO

CITY           SKY/WX    TMP DP  RH WIND       PRES   REMARKS
DEFIANCE       SUNNY     88  67  49 W3        29.98S HX  91
FINDLAY        MOSUNNY   84  70  62 NE5       29.97F
TOLEDO EXPRESS MOSUNNY   82  75  79 S3        29.97R
TOLEDO EXEC    MOSUNNY   82  70  66 SW7       29.97R
LIMA           MOSUNNY   85  68  56 W7        29.99F
$$

OHZ009>014-019>023-028>033-038-089-030000-
   NORTHEAST OHIO

CITY           SKY/WX    TMP DP  RH WIND       PRES   REMARKS
CLE-HOPKINS    MOSUNNY   83  68  60 W8        29.99S
CLE-LAKEFRONT  SUNNY     80  71  74 SW3       29.95F
CUY CO. ARPT   MOCLDY    82  70  65 W12       29.98F
LORAIN-ELYRIA  MOSUNNY   80  71  74 W5        29.99R
ASHTABULA      CLEAR     81  69  67 VRB3      29.98F
AKRON-CANTON   MOCLDY    81  67  62 S8        30.00S
WOOSTER        SUNNY     80  67  64 W5        30.01S
MANSFIELD      MOSUNNY   81  70  69 CALM      30.02S
YOUNGSTOWN     MOCLDY    77  70  79 CALM      29.99F
$$

OHZ042-051>053-060>062-070>072-077>081-030000-
  SOUTHWEST OHIO

CITY           SKY/WX    TMP DP  RH WIND       PRES   REMARKS
CINC-COVINGTON MOSUNNY   87  67  51 W8        30.02S HX  90
CINC-LUNKEN    PTSUNNY   82  70  66 E10G20    30.02R
HAMILTON       SUNNY     87  69  54 VRB6      30.01F HX  91
DAYTON         MOSUNNY   82  68  62 S8        30.02F
WRIGHT-PAT AFB MOSUNNY   82  71  70 SW3       30.01F
DAYTON GENERAL MOSUNNY   81  69  67 S6        30.02S
WILMINGTON     PTSUNNY   76  68  76 CALM      30.03S
$$

OHZ036-037-039>041-045>050-054>059-063>069-073>076-082>088-030000-
  CENTRAL AND SOUTHEAST OHIO

CITY           SKY/WX    TMP DP  RH WIND       PRES   REMARKS
COLUMBUS       PTSUNNY   74  68  81 CALM      30.01F
OSU AIRPORT    MOSUNNY   77  68  73 SW8       30.02S
BOLTON FIELD   SUNNY     75  72  88 NW5       30.03F
RICKENBACK AFB PTSUNNY   74  69  83 CALM      30.01S
NEWARK         PTSUNNY   77  68  73 CALM      30.01F
MARION         LGT RAIN  75  66  73 N22G33    30.03R VSB 1
LANCASTER      PTSUNNY   73  68  84 CALM      30.02F
ZANESVILLE     CLOUDY    80  66  62 NW5       30.00F
NEW PHILLY     PTCLDY    82  69  64 CALM      29.99F
$$


USA.gov is the U.S. government's official web portal to all federal, state and local government web resources and services.